Regional Weather Roundup
Issued by NWS Sioux Falls, SD

Home | Current Version | Previous Version | Text Only | Print | Product List | Glossary On
Versions: 1 2 3 4 5 6 7 8 9 10 11 12 13 14 15 16 17 18 19 20 21 22 23 24 25 26 27 28 29 30 31 32 33 34 35 36 37 38 39 40 41 42 43 44 45 46 47 48 49 50
000
ASUS43 KFSD 042310
RWRFSD

WEATHER ROUNDUP FOR SE SOUTH DAKOTA/SW MINNESOTA/NW IOWA
NATIONAL WEATHER SERVICE SIOUX FALLS SD
500 PM CST SUN DEC 04 2016

NOTE: "FAIR" INDICATES FEW OR NO CLOUDS BELOW 12,000 FEET WITH NO
SIGNIFICANT WEATHER AND OR OBSTRUCTIONS TO VISIBILITY.


SDZ038>040-050-052>070-050000-
SOUTHEAST SOUTH DAKOTA

CITY           SKY/WX    TMP DP  RH WIND       PRES   REMARKS
BROOKINGS      CLEAR     36  30  79 W7        29.77S
CHAMBERLAIN    CLEAR     40  30  67 CALM      29.78F
HURON          CLEAR     36  30  79 SW5       29.78F
MADISON        FAIR      36  36 100 W8        29.79S
MITCHELL       CLEAR     40  30  67 CALM      29.81S
SIOUX FALLS    CLEAR     40  33  76 W3        29.81R
WINNER         FAIR      43  24  47 SW3       29.78F
YANKTON        CLEAR     43  27  52 W7        29.82F
$$

MNZ071-072-080-081-089-090-097-098-050000-
SOUTHWEST MINNESOTA

CITY           SKY/WX    TMP DP  RH WIND       PRES   REMARKS
FAIRMONT       CLEAR     40  33  76 W8        29.81R
JACKSON        CLEAR     36  32  87 W8        29.80R
LUVERNE        CLEAR     34  30  86 W8        29.81R WCI  27
MARSHALL       CLEAR     36  32  85 W12       29.77S
MONTEVIDEO     CLOUDY    37  32  81 NW8       29.78S
PIPESTONE      CLEAR     37  34  87 W7        29.78S
REDWOOD FALLS  CLEAR     38  30  73 W13       29.77R
TRACY          CLEAR     38  33  82 W9        29.77F
WINDOM         CLEAR     37  32  81 CALM      29.79R
WORTHINGTON    CLEAR     37  32  82 SW12      29.80R
$$

IAZ001>003-012>014-020>022-031-032-NEZ013-014-SDZ071-050000-
NORTHWEST IOWA

CITY           SKY/WX    TMP DP  RH WIND       PRES   REMARKS
CHEROKEE       CLEAR     38  36  91 SW7       29.84S
DENISON        CLEAR     37  34  87 SW5       29.85S
ESTHERVILLE    CLEAR     37  33  85 W9        29.81R
LE MARS        CLEAR     43  32  65 SW5       29.84S
ORANGE CITY    CLEAR     37  34  87 CALM      29.83R
SHELDON        CLEAR     37  34  87 SW8       29.81S
SIOUX CITY     CLEAR     44  31  60 W5        29.85R
SPENCER        CLEAR     35  31  85 SW8       29.82S WCI  29
STORM LAKE     CLEAR     37  34  87 SW8       29.84R
$$

ABBREVIATIONS USED IN REMARKS
   TC - TEMPERATURE IN CELSIUS
  WCI - WIND CHILL INDEX
   HX - HEAT INDEX
  VSB - VISIBILITY




USA.gov is the U.S. government's official web portal to all federal, state and local government web resources and services.